This is the latest recevied weather packets stored in our database for station/object SQ3RAX-13. If no packets are shown the sender has not sent any weather packets the latest 1 day(s).
| Time | Temp. | Humidity | Pressure | Rain* | Wind** | Luminosity | Snow |
|---|---|---|---|---|---|---|---|
| 1778096768 | 11.67° C | 86% | 1007 hPa | 0 mm | - | - | - |
| 1778096168 | 11.67° C | 86% | 1007 hPa | 0 mm | - | - | - |
| 1778095568 | 12.22° C | 86% | 1007 hPa | 0 mm | - | - | - |
| 1778094968 | 12.78° C | 85% | 1007 hPa | 0 mm | - | - | - |
| 1778094368 | 12.78° C | 85% | 1007 hPa | 0 mm | - | - | - |
| 1778093768 | 12.78° C | 85% | 1007 hPa | 0 mm | - | - | - |
| 1778092568 | 13.89° C | 83% | 1006 hPa | 0 mm | - | - | - |
| 1778091968 | 13.89° C | 83% | 1006 hPa | 0 mm | - | - | - |
| 1778091368 | 13.89° C | 82% | 1006 hPa | 0 mm | - | - | - |
| 1778090768 | 13.89° C | 83% | 1006 hPa | 0 mm | - | - | - |
| 1778090168 | 13.89° C | 83% | 1006 hPa | 0 mm | - | - | - |
| 1778089568 | 14.44° C | 82% | 1006 hPa | 0 mm | - | - | - |
| 1778088368 | 15° C | 78% | 1006 hPa | 0 mm | - | - | - |
| 1778087768 | 15° C | 77% | 1006 hPa | 0 mm | - | - | - |
| 1778087168 | 15° C | 77% | 1006 hPa | 0 mm | - | - | - |
| 1778086568 | 15.56° C | 78% | 1006 hPa | 0 mm | - | - | - |
| 1778085968 | 15.56° C | 78% | 1006 hPa | 0 mm | - | - | - |
| 1778085368 | 16.11° C | 75% | 1006 hPa | 0 mm | - | - | - |
| 1778084168 | 16.67° C | 73% | 1006 hPa | 0 mm | - | - | - |
| 1778083568 | 16.67° C | 73% | 1006 hPa | 0 mm | - | - | - |
| 1778082968 | 16.67° C | 71% | 1005 hPa | 0 mm | - | - | - |
| 1778082368 | 16.67° C | 71% | 1005 hPa | 0 mm | - | - | - |
| 1778081768 | 17.22° C | 70% | 1005 hPa | 0 mm | - | - | - |
| 1778081168 | 17.22° C | 70% | 1005 hPa | 0 mm | - | - | - |
| 1778079968 | 17.22° C | 69% | 1005 hPa | 0 mm | - | - | - |
* Rain latest hour (hover to see other rain measurements)
** Current wind speed in m/s (hover to see current wind gust speed)